EW8383 Weather Reports


time (UTC)temp
F
wind
direction
speed
knots
gust
knots
rain 1hr
in
rain 24hr
in
rain mn
in
humidity
%
barometer
mb
20260906204556 89 175 13.0 0.0 0.00 0.00 0.00 44 1004.5
20260906203043 89 187 13.0 0.0 0.00 0.00 0.00 46 1004.7
20260906201539 89 175 13.9 0.0 0.00 0.00 0.00 43 1004.9
20260906200036 89 153 12.2 0.0 0.00 0.00 0.00 43 1004.9
20260906194531 89 178 13.0 0.0 0.00 0.00 0.00 44 1005.1
20260906193026 88 153 14.8 0.0 0.00 0.00 0.00 45 1005.2
20260906191522 87 175 13.0 0.0 0.00 0.00 0.00 46 1005.2
20260906190018 86 173 13.0 0.0 0.00 0.00 0.00 48 1005.5
20260906184514 86 163 10.4 0.0 0.00 0.00 0.00 50 1005.6
20260906183016 86 360 11.3 0.0 0.00 0.00 0.00 50 1006.2
20260906181505 85 145 10.4 0.0 0.00 0.00 0.00 53 1006.4
20260906180002 84 202 9.6 0.0 0.00 0.00 0.00 53 1006.8
20260906174600 83 177 11.3 0.0 0.00 0.00 0.00 54 1006.7
20260906173108 83 158 10.4 0.0 0.00 0.00 0.00 57 1007.0
20260906171558 82 146 11.3 0.0 0.00 0.00 0.00 58 1007.2
20260906170115 80 148 10.4 0.0 0.00 0.00 0.00 63 1007.6
20260906164547 78 186 9.6 0.0 0.00 0.00 0.00 67 1007.6
20260906163046 76 104 12.2 0.0 0.00 0.00 0.00 73 1007.6
20260906161543 75 123 13.9 0.0 0.00 0.00 0.00 75 1007.6
20260906160042 75 111 12.2 0.0 0.00 0.00 0.00 78 1007.9
20260906154545 73 107 13.9 0.0 0.00 0.00 0.00 79 1008.0
20260906153042 72 104 13.9 0.0 0.00 0.00 0.00 81 1008.0
20260906151642 73 116 13.9 0.0 0.00 0.00 0.00 78 1008.1
20260906144542 72 110 13.0 0.0 0.00 0.00 0.00 85 1008.0
20260906143043 70 124 11.3 0.0 0.00 0.00 0.00 91 1007.8
20260906141538 68 112 9.6 0.0 0.00 0.00 0.00 93 1007.6
20260906140046 67 103 7.8 0.0 0.00 0.00 0.00 93 1007.6
20260906134547 67 107 7.0 0.0 0.00 0.00 0.00 93 1007.7
20260906133039 66 92 8.7 0.0 0.00 0.00 0.00 94 1007.5
20260906131535 66 98 9.6 0.0 0.00 0.00 0.00 93 1007.3
20260906130033 66 94 7.8 0.0 0.00 0.00 0.00 93 1007.3
20260906124541 65 95 4.3 0.0 0.00 0.00 0.00 92 1007.7
20260906123104 65 100 4.3 0.0 0.00 0.00 0.00 92 1007.7
20260906121531 65 63 2.6 0.0 0.00 0.00 0.00 91 1007.9
20260906120030 65 72 3.5 0.0 0.00 0.00 0.00 91 1007.9
20260906114528 64 75 3.5 0.0 0.00 0.00 0.00 91 1007.7
20260906113028 64 75 4.3 0.0 0.00 0.00 0.00 91 1007.5
20260906111531 64 85 3.5 0.0 0.00 0.00 0.00 90 1007.5
20260906110027 64 75 6.1 0.0 0.00 0.00 0.00 90 1006.9
20260906104530 64 61 4.3 0.0 0.00 0.00 0.00 90 1007.1
20260906103025 65 33 3.5 0.0 0.00 0.00 0.00 91 1007.3
20260906101524 65 59 7.0 0.0 0.00 0.00 0.00 90 1007.3
20260906100026 65 57 4.3 0.0 0.00 0.00 0.00 91 1007.6
20260906094521 65 42 7.8 0.0 0.00 0.00 0.00 90 1007.4
20260906093022 65 58 7.0 0.0 0.00 0.00 0.00 91 1007.3
20260906091518 65 34 6.1 0.0 0.00 0.00 0.00 91 1007.4
20260906090016 65 17 7.0 0.0 0.00 0.00 0.00 90 1006.9
20260906084514 65 51 7.0 0.0 0.00 0.00 0.00 89 1007.1
20260906083014 66 30 7.8 0.0 0.00 0.00 0.00 88 1007.2
20260906081511 67 44 7.0 0.0 0.00 0.00 0.00 86 1007.0
20260906080021 68 32 9.6 0.0 0.00 0.00 0.00 82 1007.4
20260906073058 76 314 4.3 0.0 0.00 0.00 0.00 65 1006.8
20260906071557 74 16 7.8 0.0 0.00 0.00 0.00 69 1006.9
20260906070053 74 171 0.9 0.0 0.00 0.00 0.00 69 1005.8
20260906064551 74 360 2.6 0.0 0.00 0.00 0.00 68 1005.5
20260906063050 74 163 3.5 0.0 0.00 0.00 0.00 68 1005.2
20260906061551 74 142 3.5 0.0 0.00 0.00 0.00 68 1005.4
20260906060046 75 140 2.6 0.0 0.00 0.00 0.00 67 1005.2
20260906054545 75 142 2.6 0.0 0.00 0.00 0.00 65 1005.2
20260906053058 75 149 0.9 0.0 0.00 0.00 0.00 65 1005.0
20260906051542 76 150 0.9 0.0 0.00 0.00 0.00 64 1005.2
20260906050049 77 163 2.6 0.0 0.00 0.00 0.00 63 1005.2
20260906044539 77 149 4.3 0.0 0.00 0.00 0.00 62 1005.2
20260906043038 77 141 5.2 0.0 0.00 0.00 0.00 62 1004.9
20260906041538 78 142 7.0 0.0 0.00 0.00 0.00 61 1004.8
20260906040039 78 123 9.6 0.0 0.00 0.00 0.00 59 1005.0
20260906034537 79 122 8.7 0.0 0.00 0.00 0.00 58 1005.0
20260906033047 80 123 9.6 0.0 0.00 0.00 0.00 58 1004.9
20260906031537 80 109 10.4 0.0 0.00 0.00 0.00 57 1004.8
20260906030039 82 124 8.7 0.0 0.00 0.00 0.00 54 1004.9
20260906024544 83 112 10.4 0.0 0.00 0.00 0.00 52 1004.8
20260906023047 83 98 11.3 0.0 0.00 0.00 0.00 50 1004.6
20260906021636 83 114 8.7 0.0 0.00 0.00 0.00 48 1004.4
20260906020037 84 120 7.0 0.0 0.00 0.00 0.00 47 1004.0
20260906014533 84 123 7.0 0.0 0.00 0.00 0.00 46 1003.8
20260906011535 87 134 5.2 0.0 0.00 0.00 0.00 41 1004.0
20260906010034 88 132 5.2 0.0 0.00 0.00 0.00 39 1004.1
20260906004532 90 155 4.3 0.0 0.00 0.00 0.00 37 1004.1
20260906003031 90 144 6.1 0.0 0.00 0.00 0.00 36 1003.7
20260906001531 91 127 13.9 0.0 0.00 0.00 0.00 36 1003.3
20260906000048 91 113 10.4 0.0 0.00 0.00 0.00 36 1003.0
20260905234530 91 123 7.0 0.0 0.00 0.00 0.00 36 1003.1
20260905233029 91 134 10.4 0.0 0.00 0.00 0.00 36 1002.8
20260905231529 91 114 11.3 0.0 0.00 0.00 0.00 37 1002.7
20260905230028 91 123 12.2 0.0 0.00 0.00 0.00 36 1002.7
20260905224531 91 120 13.0 0.0 0.00 0.00 0.00 35 1002.5
20260905223027 91 117 7.8 0.0 0.00 0.00 0.00 34 1002.5
20260905221527 91 151 7.8 0.0 0.00 0.00 0.00 35 1002.6
20260905220026 92 155 8.7 0.0 0.00 0.00 0.00 35 1002.5
20260905214525 92 109 11.3 0.0 0.00 0.00 0.00 35 1002.6
20260905213022 91 121 8.7 0.0 0.00 0.00 0.00 36 1002.9
20260905211521 93 144 13.0 0.0 0.00 0.00 0.00 35 1003.3
20260905210020 92 163 9.6 0.0 0.00 0.00 0.00 37 1003.4